Weather History for Newton, IA

Change the Weather History Date:

Thursday, December 19, 2013

  Actual Average Record
Temperature  
Mean Temperature 32 °F -  
Max Temperature 37 °F 35 °F 55 °F (1988)
Min Temperature 28 °F 17 °F -19 °F (1983)
Degree Days  
Heating Degree Days 32    
Moisture  
Dew Point 29 °F    
Average Humidity 89    
Maximum Humidity 100    
Minimum Humidity 75    
Precipitation  
Precipitation 0.00 in - - ()
Sea Level Pressure  
Sea Level Pressure 29.78 in    
Wind  
Wind Speed 9 mph (NE)    
Max Wind Speed 17 mph    
Max Gust Speed 23 mph    
Visibility 7 miles    
Events Rain    
Averages and records for this station are not official NWS values.
T = Trace of Precipitation, MM = Missing Value Source: NWS Daily Summary

Daily Weather History Graph

Daily Weather History Graph

Search for Another Location

Airport:

Trip Planner

Search our weather history database for the weather conditions in past years. The results will help you decide how hot, cold, wet, or windy it might be!

Date:

Astronomy

Dec. 19, 2013 Rise Set
Actual Time 7:34 AM CST 4:44 PM CST
Civil Twilight 7:03 AM CST 5:15 PM CST
Nautical Twilight 6:28 AM CST 5:50 PM CST
Astronomical Twilight 5:54 AM CST 6:24 PM CST
Moon 7:11 PM CST 8:52 AM CST
Length of Visible Light 10h 12m
Length of Day
9h 09m
Waning Gibbous, 95% of the Moon is Illuminated
Dec 19
Waning Gibbous
Dec 25
Last Quarter
Jan 1
New
Jan 7
First Quarter
Jan 15
Full

Hourly Weather History & Observations

Time (CST) Temp. Windchill Dew Point Humidity Pressure Visibility Wind Dir Wind Speed Gust Speed Precip Events Conditions
12:15 AM 33.8 °F 29.6 °F 30.2 °F 87% 29.75 in 10.0 mi South 4.6 mph - N/A   Clear
12:35 AM 32.0 °F - 30.2 °F 93% 29.75 in 10.0 mi Calm Calm - N/A   Clear
12:55 AM 30.2 °F 26.7 °F 28.4 °F 93% 29.75 in 10.0 mi ENE 3.5 mph - N/A   Clear
1:15 AM 32.0 °F 28.7 °F 28.4 °F 87% 29.75 in 10.0 mi ENE 3.5 mph - N/A   Clear
1:35 AM 32.0 °F 27.5 °F 28.4 °F 87% 29.75 in 9.0 mi ENE 4.6 mph - N/A   Clear
1:55 AM 32.0 °F - 30.2 °F 93% 29.76 in 10.0 mi Calm Calm - N/A   Clear
2:15 AM 30.2 °F 25.4 °F 28.4 °F 93% 29.76 in 10.0 mi ENE 4.6 mph - N/A   Clear
2:35 AM 30.2 °F 23.4 °F 26.6 °F 86% 29.77 in 9.0 mi NNE 6.9 mph - N/A   Clear
2:55 AM 28.4 °F 22.2 °F 28.4 °F 100% 29.76 in 8.0 mi East 5.8 mph - N/A   Clear
3:15 AM 32.0 °F 25.6 °F 28.4 °F 87% 29.76 in 8.0 mi NE 6.9 mph - N/A   Clear
3:35 AM 30.2 °F 22.6 °F 28.4 °F 93% 29.76 in 8.0 mi NE 8.1 mph - N/A   Clear
3:55 AM 30.2 °F 24.3 °F 28.4 °F 93% 29.77 in 8.0 mi NE 5.8 mph - N/A   Clear
4:15 AM 30.2 °F 24.3 °F 28.4 °F 93% 29.78 in 8.0 mi NE 5.8 mph - N/A   Clear
4:35 AM 30.2 °F 22.6 °F 28.4 °F 93% 29.77 in 8.0 mi NE 8.1 mph - N/A   Clear
4:55 AM 30.2 °F 24.3 °F 28.4 °F 93% 29.79 in 8.0 mi ENE 5.8 mph - N/A   Clear
5:15 AM 30.2 °F 25.4 °F 28.4 °F 93% 29.80 in 9.0 mi NE 4.6 mph - N/A   Clear
5:35 AM 30.2 °F 24.3 °F 28.4 °F 93% 29.79 in 8.0 mi NNE 5.8 mph - N/A   Clear
5:55 AM 30.2 °F 23.4 °F 28.4 °F 93% 29.79 in 8.0 mi NE 6.9 mph - N/A   Clear
6:15 AM 32.0 °F 24.8 °F 30.2 °F 93% 29.79 in 9.0 mi ENE 8.1 mph - N/A   Clear
6:35 AM 32.0 °F 23.6 °F 28.4 °F 87% 29.78 in 9.0 mi NE 10.4 mph - N/A   Clear
6:55 AM 32.0 °F 23.0 °F 28.4 °F 87% 29.79 in 8.0 mi NE 11.5 mph - N/A   Clear
7:15 AM 30.2 °F 21.9 °F 28.4 °F 93% 29.80 in 9.0 mi NNE 9.2 mph - N/A   Clear
7:35 AM 32.0 °F 22.1 °F 28.4 °F 87% 29.79 in 9.0 mi NNE 13.8 mph 20.7 mph N/A   Clear
7:55 AM 32.0 °F 23.6 °F 28.4 °F 87% 29.82 in 9.0 mi NNE 10.4 mph - N/A   Clear
8:15 AM 32.0 °F 23.0 °F 28.4 °F 87% 29.82 in 9.0 mi NNE 11.5 mph - N/A   Clear
8:35 AM 32.0 °F 21.6 °F 28.4 °F 87% 29.82 in 9.0 mi NNE 15.0 mph - N/A   Clear
8:55 AM 32.0 °F 21.6 °F 28.4 °F 87% 29.83 in 9.0 mi NNE 15.0 mph - N/A   Clear
9:15 AM 32.0 °F 21.6 °F 28.4 °F 87% 29.84 in 8.0 mi NNE 15.0 mph - N/A   Clear
9:35 AM 32.0 °F 22.1 °F 28.4 °F 87% 29.84 in 8.0 mi NNE 13.8 mph - N/A   Clear
9:55 AM 32.0 °F 23.0 °F 28.4 °F 87% 29.84 in 8.0 mi NE 11.5 mph 19.6 mph N/A   Clear
10:15 AM 32.0 °F 23.0 °F 28.4 °F 87% 29.85 in 9.0 mi ENE 11.5 mph - N/A   Clear
10:35 AM 33.8 °F 24.8 °F 28.4 °F 81% 29.84 in 9.0 mi NE 12.7 mph 20.7 mph N/A   Clear
10:55 AM 33.8 °F 24.8 °F 28.4 °F 81% 29.84 in 9.0 mi NE 12.7 mph 19.6 mph N/A   Clear
11:15 AM 33.8 °F 24.3 °F 28.4 °F 81% 29.84 in 9.0 mi ENE 13.8 mph - N/A   Clear
11:35 AM 33.8 °F 25.3 °F 30.2 °F 87% 29.82 in 9.0 mi NE 11.5 mph - N/A   Clear
11:55 AM 35.6 °F 26.2 °F 30.2 °F 81% 29.80 in 9.0 mi ENE 15.0 mph - N/A   Clear
12:15 PM 35.6 °F 26.2 °F 30.2 °F 81% 29.79 in 8.0 mi ENE 15.0 mph - N/A   Clear
12:35 PM 35.6 °F 26.6 °F 30.2 °F 81% 29.79 in 9.0 mi ENE 13.8 mph - N/A   Clear
12:55 PM 35.6 °F 27.5 °F 30.2 °F 81% 29.77 in 8.0 mi ENE 11.5 mph 17.3 mph N/A   Clear
1:15 PM 35.6 °F 27.1 °F 30.2 °F 81% 29.77 in 9.0 mi ENE 12.7 mph - N/A   Clear
1:35 PM 37.4 °F 28.9 °F 30.2 °F 75% 29.75 in 8.0 mi ENE 13.8 mph - N/A   Clear
1:55 PM 37.4 °F 28.5 °F 30.2 °F 75% 29.74 in 8.0 mi ENE 15.0 mph - N/A   Clear
2:15 PM 35.6 °F 26.6 °F 30.2 °F 81% 29.74 in 8.0 mi ENE 13.8 mph - N/A   Clear
2:35 PM 37.4 °F 29.3 °F 30.2 °F 75% 29.74 in 8.0 mi ENE 12.7 mph 20.7 mph N/A   Clear
2:55 PM 35.6 °F 27.5 °F 30.2 °F 81% 29.76 in 8.0 mi NE 11.5 mph 17.3 mph N/A   Mostly Cloudy
3:15 PM 35.6 °F 27.1 °F 30.2 °F 81% 29.77 in 8.0 mi NE 12.7 mph - N/A   Overcast
3:35 PM 35.6 °F 27.5 °F 30.2 °F 81% 29.78 in 8.0 mi NE 11.5 mph - N/A   Overcast
3:55 PM 35.6 °F 27.1 °F 30.2 °F 81% 29.78 in 7.0 mi ENE 12.7 mph - N/A   Overcast
4:15 PM 35.6 °F 26.2 °F 30.2 °F 81% 29.78 in 7.0 mi ENE 15.0 mph - N/A   Overcast
4:35 PM 33.8 °F 23.2 °F 30.2 °F 87% 29.77 in 6.0 mi ENE 17.3 mph - N/A   Haze
4:55 PM 33.8 °F 23.5 °F 30.2 °F 87% 29.76 in 6.0 mi ENE 16.1 mph 23.0 mph N/A   Overcast
5:15 PM 33.8 °F 23.5 °F 30.2 °F 87% 29.76 in 6.0 mi ENE 16.1 mph - N/A   Overcast
5:35 PM 33.8 °F 24.8 °F 30.2 °F 87% 29.77 in 4.0 mi NE 12.7 mph - N/A   Overcast
5:55 PM 32.0 °F 23.0 °F 30.2 °F 93% 29.77 in 3.0 mi NE 11.5 mph 18.4 mph N/A   Overcast
6:15 PM 32.0 °F 21.6 °F 30.2 °F 93% 29.76 in 5.0 mi NE 15.0 mph 23.0 mph N/A   Overcast
6:35 PM 32.0 °F 21.6 °F 30.2 °F 93% 29.77 in 5.0 mi ENE 15.0 mph 20.7 mph N/A   Overcast
6:55 PM 32.0 °F 22.5 °F 30.2 °F 93% 29.77 in 3.0 mi ENE 12.7 mph 19.6 mph N/A Rain Light Rain
7:15 PM 32.0 °F 22.5 °F 30.2 °F 93% 29.76 in 4.0 mi ENE 12.7 mph - N/A   Overcast
7:35 PM 32.0 °F 23.0 °F 30.2 °F 93% 29.76 in 4.0 mi ENE 11.5 mph - N/A   Overcast
7:55 PM 32.0 °F 22.5 °F 30.2 °F 93% 29.77 in 3.0 mi NE 12.7 mph - N/A   Overcast
8:15 PM 30.2 °F 20.2 °F 30.2 °F 100% 29.76 in 3.0 mi NE 12.7 mph 18.4 mph N/A   Overcast
8:35 PM 30.2 °F 20.8 °F 30.2 °F 100% 29.75 in 2.0 mi NE 11.5 mph - N/A   Overcast
8:55 PM 30.2 °F 19.3 °F 30.2 °F 100% 29.77 in 2.0 mi NNE 15.0 mph - N/A   Overcast
9:15 PM 30.2 °F 19.3 °F 30.2 °F 100% 29.76 in 1.5 mi NE 15.0 mph 23.0 mph N/A Rain Light Freezing Rain
9:35 PM 30.2 °F 19.3 °F 30.2 °F 100% 29.76 in 1.5 mi NE 15.0 mph - N/A Rain Light Freezing Rain
9:55 PM 30.2 °F 19.8 °F 30.2 °F 100% 29.76 in 1.8 mi NE 13.8 mph - N/A   Light Freezing Rain
10:15 PM 30.2 °F 19.8 °F 30.2 °F 100% 29.76 in 2.0 mi NNE 13.8 mph - N/A Rain Light Freezing Rain
10:35 PM 30.2 °F 20.2 °F 30.2 °F 100% 29.78 in 2.0 mi NNE 12.7 mph - N/A   Overcast
10:55 PM 28.4 °F 18.5 °F 28.4 °F 100% 29.78 in 2.5 mi North 11.5 mph 18.4 mph N/A   Overcast
11:15 PM 28.4 °F 17.5 °F 28.4 °F 100% 29.79 in 1.5 mi North 13.8 mph - N/A   Overcast
11:35 PM 28.4 °F 17.5 °F 28.4 °F 100% 29.78 in 2.0 mi NNE 13.8 mph - N/A   Overcast
11:55 PM 28.4 °F 17.5 °F 28.4 °F 100% 29.78 in 2.5 mi NNE 13.8 mph 20.7 mph N/A   Overcast